Time,TemperatureF,DewpointF,PressureIn,WindDirection,WindDirectionDegrees,WindSpeedMPH,WindSpeedGustMPH,Humidity,HourlyPrecipIn,Conditions,Clouds,dailyrainin,SoftwareType,DateUTC
2013-01-09 00:00:00,31.3,23.3,30.22,WSW,258,0.0,14.0,72,0.00,,,0.00,Wunderground v.1.13,2013-01-09 07:00:00,
2013-01-09 00:05:00,30.9,22.9,30.22,WSW,258,0.0,14.0,72,0.00,,,0.00,Wunderground v.1.13,2013-01-09 07:05:00,
2013-01-09 00:15:00,29.5,21.6,30.22,WSW,258,0.0,14.0,72,0.00,,,0.00,Wunderground v.1.13,2013-01-09 07:15:00,
2013-01-09 00:20:00,29.5,22.2,30.22,West,259,0.0,14.0,74,0.00,,,0.00,Wunderground v.1.13,2013-01-09 07:20:00,
2013-01-09 00:30:00,30.6,23.0,30.22,West,259,0.0,14.0,73,0.00,,,0.00,Wunderground v.1.13,2013-01-09 07:30:00,
2013-01-09 00:35:00,31.0,23.0,30.21,West,259,0.0,14.0,72,0.00,,,0.00,Wunderground v.1.13,2013-01-09 07:35:00,
2013-01-09 00:40:00,31.3,23.0,30.21,West,259,0.0,14.0,71,0.00,,,0.00,Wunderground v.1.13,2013-01-09 07:40:00,
2013-01-09 00:45:00,31.3,23.0,30.21,West,259,0.0,14.0,71,0.00,,,0.00,Wunderground v.1.13,2013-01-09 07:45:00,
2013-01-09 00:50:00,31.9,23.6,30.21,NW,321,0.0,14.0,71,0.00,,,0.00,Wunderground v.1.13,2013-01-09 07:50:00,
2013-01-09 00:55:00,32.7,23.6,30.21,NW,325,1.0,14.0,69,0.00,,,0.00,Wunderground v.1.13,2013-01-09 07:55:00,
2013-01-09 01:00:00,33.1,23.7,30.21,NNW,335,2.0,2.0,68,0.00,,,0.00,Wunderground v.1.13,2013-01-09 08:00:00,
2013-01-09 01:05:00,32.9,23.5,30.20,NNW,334,2.0,2.0,68,0.00,,,0.00,Wunderground v.1.13,2013-01-09 08:05:00,
2013-01-09 01:10:00,32.4,23.0,30.20,NNW,334,1.0,1.0,68,0.00,,,0.00,Wunderground v.1.13,2013-01-09 08:10:00,
2013-01-09 01:15:00,31.5,22.5,30.20,NNW,334,0.0,14.0,69,0.00,,,0.00,Wunderground v.1.13,2013-01-09 08:15:00,
2013-01-09 01:20:00,30.9,22.3,30.20,NNW,334,0.0,14.0,70,0.00,,,0.00,Wunderground v.1.13,2013-01-09 08:20:00,
2013-01-09 01:25:00,30.6,22.3,30.20,NNW,334,0.0,14.0,71,0.00,,,0.00,Wunderground v.1.13,2013-01-09 08:25:00,
2013-01-09 01:30:00,30.4,22.4,30.20,NNW,334,0.0,14.0,72,0.00,,,0.00,Wunderground v.1.13,2013-01-09 08:30:00,
2013-01-09 01:35:00,30.6,22.6,30.21,NNW,334,0.0,14.0,72,0.00,,,0.00,Wunderground v.1.13,2013-01-09 08:35:00,
2013-01-09 01:40:00,30.4,22.4,30.21,NNW,333,0.0,14.0,72,0.00,,,0.00,Wunderground v.1.13,2013-01-09 08:40:00,
2013-01-09 01:45:00,30.0,22.1,30.21,NNW,333,0.0,14.0,72,0.00,,,0.00,Wunderground v.1.13,2013-01-09 08:45:00,
2013-01-09 01:50:00,29.3,21.4,30.21,NNW,333,0.0,14.0,72,0.00,,,0.00,Wunderground v.1.13,2013-01-09 08:50:00,
2013-01-09 01:55:00,28.8,21.2,30.21,NNW,333,0.0,14.0,73,0.00,,,0.00,Wunderground v.1.13,2013-01-09 08:55:00,
2013-01-09 02:00:00,28.5,21.3,30.21,NNW,333,0.0,14.0,74,0.00,,,0.00,Wunderground v.1.13,2013-01-09 09:00:00,
2013-01-09 02:05:00,28.4,21.5,30.21,NNW,333,0.0,14.0,75,0.00,,,0.00,Wunderground v.1.13,2013-01-09 09:05:00,
2013-01-09 02:10:00,28.7,21.8,30.21,NNW,333,0.0,14.0,75,0.00,,,0.00,Wunderground v.1.13,2013-01-09 09:10:00,
2013-01-09 02:20:00,28.7,21.5,30.21,NW,310,0.0,14.0,74,0.00,,,0.00,Wunderground v.1.13,2013-01-09 09:20:00,
2013-01-09 02:25:00,28.4,21.2,30.21,NW,310,0.0,14.0,74,0.00,,,0.00,Wunderground v.1.13,2013-01-09 09:25:00,
2013-01-09 02:30:00,27.8,20.6,30.21,NW,310,0.0,14.0,74,0.00,,,0.00,Wunderground v.1.13,2013-01-09 09:30:00,
2013-01-09 02:35:00,27.5,20.6,30.20,NW,310,0.0,14.0,75,0.00,,,0.00,Wunderground v.1.13,2013-01-09 09:35:00,
2013-01-09 02:40:00,26.9,20.0,30.20,NW,310,0.0,14.0,75,0.00,,,0.00,Wunderground v.1.13,2013-01-09 09:40:00,
2013-01-09 02:45:00,26.4,19.9,30.21,NW,310,0.0,14.0,76,0.00,,,0.00,Wunderground v.1.13,2013-01-09 09:45:00,
2013-01-09 02:50:00,26.0,19.8,30.21,SW,222,1.0,1.0,77,0.00,,,0.00,Wunderground v.1.13,2013-01-09 09:50:00,
2013-01-09 02:55:00,25.8,19.9,30.21,SW,222,1.0,1.0,78,0.00,,,0.00,Wunderground v.1.13,2013-01-09 09:55:00,
2013-01-09 03:00:00,25.6,19.7,30.22,SW,222,0.0,14.0,78,0.00,,,0.00,Wunderground v.1.13,2013-01-09 10:00:00,
2013-01-09 03:05:00,25.1,19.2,30.22,SW,222,0.0,14.0,78,0.00,,,0.00,Wunderground v.1.13,2013-01-09 10:05:00,
2013-01-09 03:10:00,25.0,19.4,30.22,SW,222,0.0,14.0,79,0.00,,,0.00,Wunderground v.1.13,2013-01-09 10:10:00,
2013-01-09 03:15:00,24.8,19.5,30.22,SW,222,0.0,14.0,80,0.00,,,0.00,Wunderground v.1.13,2013-01-09 10:15:00,
2013-01-09 03:20:00,25.0,19.7,30.21,SW,225,0.0,14.0,80,0.00,,,0.00,Wunderground v.1.13,2013-01-09 10:20:00,
2013-01-09 03:25:00,24.8,19.2,30.21,SW,225,0.0,14.0,79,0.00,,,0.00,Wunderground v.1.13,2013-01-09 10:25:00,
2013-01-09 03:30:00,24.5,18.9,30.20,SW,225,0.0,14.0,79,0.00,,,0.00,Wunderground v.1.13,2013-01-09 10:30:00,
2013-01-09 03:35:00,24.1,18.8,30.20,SW,225,0.0,14.0,80,0.00,,,0.00,Wunderground v.1.13,2013-01-09 10:35:00,
2013-01-09 03:40:00,24.2,19.2,30.20,SW,225,0.0,14.0,81,0.00,,,0.00,Wunderground v.1.13,2013-01-09 10:40:00,
2013-01-09 03:45:00,24.7,19.7,30.20,SW,227,0.0,14.0,81,0.00,,,0.00,Wunderground v.1.13,2013-01-09 10:45:00,
2013-01-09 03:55:00,25.1,19.8,30.20,SW,230,0.0,14.0,80,0.00,,,0.00,Wunderground v.1.13,2013-01-09 10:55:00,
2013-01-09 04:00:00,25.3,20.0,30.19,SW,234,0.0,14.0,80,0.00,,,0.00,Wunderground v.1.13,2013-01-09 11:00:00,
2013-01-09 04:05:00,25.8,20.5,30.19,WSW,258,0.0,14.0,80,0.00,,,0.00,Wunderground v.1.13,2013-01-09 11:05:00,
2013-01-09 04:10:00,26.7,21.1,30.19,West,265,0.0,14.0,79,0.00,,,0.00,Wunderground v.1.13,2013-01-09 11:10:00,
2013-01-09 04:15:00,26.7,20.5,30.19,West,265,1.0,1.0,77,0.00,,,0.00,Wunderground v.1.13,2013-01-09 11:15:00,
2013-01-09 04:20:00,26.3,20.4,30.19,West,265,0.0,14.0,78,0.00,,,0.00,Wunderground v.1.13,2013-01-09 11:20:00,
2013-01-09 04:30:00,25.1,19.2,30.20,West,262,0.0,14.0,78,0.00,,,0.00,Wunderground v.1.13,2013-01-09 11:30:00,
2013-01-09 04:40:00,24.5,18.9,30.20,West,262,1.0,1.0,79,0.00,,,0.00,Wunderground v.1.13,2013-01-09 11:40:00,
2013-01-09 04:45:00,24.7,19.1,30.20,West,262,0.0,14.0,79,0.00,,,0.00,Wunderground v.1.13,2013-01-09 11:45:00,
2013-01-09 04:50:00,24.8,19.2,30.18,West,262,0.0,14.0,79,0.00,,,0.00,Wunderground v.1.13,2013-01-09 11:50:00,
2013-01-09 04:55:00,24.7,19.1,30.18,West,262,0.0,14.0,79,0.00,,,0.00,Wunderground v.1.13,2013-01-09 11:55:00,
2013-01-09 05:05:00,23.8,18.2,30.19,West,262,0.0,14.0,79,0.00,,,0.00,Wunderground v.1.13,2013-01-09 12:05:00,
2013-01-09 05:10:00,23.5,18.2,30.19,West,262,0.0,14.0,80,0.00,,,0.00,Wunderground v.1.13,2013-01-09 12:10:00,
2013-01-09 05:15:00,23.3,18.0,30.19,West,262,0.0,14.0,80,0.00,,,0.00,Wunderground v.1.13,2013-01-09 12:15:00,
2013-01-09 05:20:00,23.2,17.9,30.19,West,262,0.0,14.0,80,0.00,,,0.00,Wunderground v.1.13,2013-01-09 12:20:00,
2013-01-09 05:25:00,23.0,17.7,30.19,West,262,0.0,14.0,80,0.00,,,0.00,Wunderground v.1.13,2013-01-09 12:25:00,
2013-01-09 05:30:00,22.5,17.3,30.20,West,262,0.0,14.0,80,0.00,,,0.00,Wunderground v.1.13,2013-01-09 12:30:00,
2013-01-09 05:35:00,22.2,17.0,30.20,West,262,0.0,14.0,80,0.00,,,0.00,Wunderground v.1.13,2013-01-09 12:35:00,
2013-01-09 05:40:00,22.2,17.3,30.20,West,262,0.0,14.0,81,0.00,,,0.00,Wunderground v.1.13,2013-01-09 12:40:00,
2013-01-09 05:45:00,22.4,17.7,30.20,West,262,0.0,14.0,82,0.00,,,0.00,Wunderground v.1.13,2013-01-09 12:45:00,
2013-01-09 05:50:00,22.5,17.8,30.22,West,262,0.0,14.0,82,0.00,,,0.00,Wunderground v.1.13,2013-01-09 12:50:00,
2013-01-09 05:55:00,22.5,17.8,30.22,West,262,0.0,14.0,82,0.00,,,0.00,Wunderground v.1.13,2013-01-09 12:55:00,
2013-01-09 06:00:00,22.4,17.7,30.22,West,262,0.0,14.0,82,0.00,,,0.00,Wunderground v.1.13,2013-01-09 13:00:00,
2013-01-09 06:05:00,22.7,18.0,30.23,West,262,0.0,14.0,82,0.00,,,0.00,Wunderground v.1.13,2013-01-09 13:05:00,
2013-01-09 06:10:00,23.0,18.3,30.23,West,262,0.0,14.0,82,0.00,,,0.00,Wunderground v.1.13,2013-01-09 13:10:00,
2013-01-09 06:15:00,23.5,18.5,30.23,West,267,0.0,14.0,81,0.00,,,0.00,Wunderground v.1.13,2013-01-09 13:15:00,
2013-01-09 06:20:00,23.6,18.6,30.23,West,267,0.0,14.0,81,0.00,,,0.00,Wunderground v.1.13,2013-01-09 13:20:00,
2013-01-09 06:25:00,23.5,18.2,30.23,West,267,0.0,14.0,80,0.00,,,0.00,Wunderground v.1.13,2013-01-09 13:25:00,
2013-01-09 06:30:00,23.3,18.0,30.23,West,267,0.0,14.0,80,0.00,,,0.00,Wunderground v.1.13,2013-01-09 13:30:00,
2013-01-09 06:35:00,23.3,18.3,30.25,West,267,0.0,14.0,81,0.00,,,0.00,Wunderground v.1.13,2013-01-09 13:35:00,
2013-01-09 06:40:00,23.2,18.2,30.25,West,267,0.0,14.0,81,0.00,,,0.00,Wunderground v.1.13,2013-01-09 13:40:00,
2013-01-09 06:50:00,23.2,18.2,30.26,West,267,0.0,14.0,81,0.00,,,0.00,Wunderground v.1.13,2013-01-09 13:50:00,
2013-01-09 07:00:00,22.9,17.7,30.26,West,267,0.0,14.0,80,0.00,,,0.00,Wunderground v.1.13,2013-01-09 14:00:00,
2013-01-09 07:05:00,22.4,17.2,30.26,West,267,0.0,14.0,80,0.00,,,0.00,Wunderground v.1.13,2013-01-09 14:05:00,
2013-01-09 07:15:00,21.8,16.6,30.26,West,267,0.0,14.0,80,0.00,,,0.00,Wunderground v.1.13,2013-01-09 14:15:00,
2013-01-09 07:20:00,21.4,16.2,30.27,West,267,0.0,14.0,80,0.00,,,0.00,Wunderground v.1.13,2013-01-09 14:20:00,
2013-01-09 07:25:00,21.0,16.1,30.27,West,267,0.0,14.0,81,0.00,,,0.00,Wunderground v.1.13,2013-01-09 14:25:00,
2013-01-09 07:30:00,20.8,15.9,30.28,West,267,0.0,14.0,81,0.00,,,0.00,Wunderground v.1.13,2013-01-09 14:30:00,
2013-01-09 07:35:00,20.8,16.2,30.28,West,267,0.0,14.0,82,0.00,,,0.00,Wunderground v.1.13,2013-01-09 14:35:00,
2013-01-09 07:45:00,21.6,17.0,30.28,West,267,0.0,14.0,82,0.00,,,0.00,Wunderground v.1.13,2013-01-09 14:45:00,
2013-01-09 07:50:00,21.9,17.0,30.30,West,267,0.0,14.0,81,0.00,,,0.00,Wunderground v.1.13,2013-01-09 14:50:00,
2013-01-09 08:00:00,22.5,17.5,30.31,West,267,0.0,14.0,81,0.00,,,0.00,Wunderground v.1.13,2013-01-09 15:00:00,
2013-01-09 08:05:00,23.5,18.2,30.31,West,267,0.0,14.0,80,0.00,,,0.00,Wunderground v.1.13,2013-01-09 15:05:00,
2013-01-09 08:10:00,24.2,18.9,30.31,West,267,0.0,14.0,80,0.00,,,0.00,Wunderground v.1.13,2013-01-09 15:10:00,
2013-01-09 08:15:00,25.1,19.5,30.31,West,267,0.0,14.0,79,0.00,,,0.00,Wunderground v.1.13,2013-01-09 15:15:00,
2013-01-09 08:20:00,26.0,19.5,30.31,West,259,1.0,1.0,76,0.00,,,0.00,Wunderground v.1.13,2013-01-09 15:20:00,
2013-01-09 08:25:00,26.9,19.7,30.31,WSW,244,2.0,14.0,74,0.00,,,0.00,Wunderground v.1.13,2013-01-09 15:25:00,
2013-01-09 08:30:00,27.5,19.7,30.31,SW,232,4.0,14.0,72,0.00,,,0.00,Wunderground v.1.13,2013-01-09 15:30:00,
2013-01-09 08:40:00,28.1,19.9,30.31,WSW,251,4.0,4.0,71,0.00,,,0.00,Wunderground v.1.13,2013-01-09 15:40:00,
2013-01-09 08:50:00,28.2,19.7,30.31,WSW,249,5.0,14.0,70,0.00,,,0.00,Wunderground v.1.13,2013-01-09 15:50:00,
2013-01-09 08:55:00,28.5,20.3,30.31,WSW,246,3.0,3.0,71,0.00,,,0.00,Wunderground v.1.13,2013-01-09 15:55:00,
2013-01-09 09:00:00,29.0,20.8,30.32,WSW,241,3.0,14.0,71,0.00,,,0.00,Wunderground v.1.13,2013-01-09 16:00:00,
2013-01-09 09:05:00,29.3,20.7,30.32,WSW,244,3.0,14.0,70,0.00,,,0.00,Wunderground v.1.13,2013-01-09 16:05:00,
2013-01-09 09:10:00,29.5,20.9,30.32,WSW,240,3.0,14.0,70,0.00,,,0.00,Wunderground v.1.13,2013-01-09 16:10:00,
2013-01-09 09:15:00,30.0,21.4,30.32,WSW,242,3.0,3.0,70,0.00,,,0.00,Wunderground v.1.13,2013-01-09 16:15:00,
2013-01-09 09:20:00,30.7,21.7,30.32,WSW,243,1.0,14.0,69,0.00,,,0.00,Wunderground v.1.13,2013-01-09 16:20:00,
2013-01-09 09:25:00,31.3,22.0,30.32,WSW,246,1.0,1.0,68,0.00,,,0.00,Wunderground v.1.13,2013-01-09 16:25:00,
2013-01-09 09:30:00,31.9,22.5,30.33,West,281,1.0,1.0,68,0.00,,,0.00,Wunderground v.1.13,2013-01-09 16:30:00,
2013-01-09 09:35:00,32.4,22.7,30.33,West,279,1.0,1.0,67,0.00,,,0.00,Wunderground v.1.13,2013-01-09 16:35:00,
2013-01-09 09:45:00,32.9,22.8,30.33,WNW,282,0.0,14.0,66,0.00,,,0.00,Wunderground v.1.13,2013-01-09 16:45:00,
2013-01-09 09:50:00,33.2,23.1,30.33,WNW,282,0.0,14.0,66,0.00,,,0.00,Wunderground v.1.13,2013-01-09 16:50:00,
2013-01-09 09:55:00,33.7,23.5,30.33,WNW,282,0.0,14.0,66,0.00,,,0.00,Wunderground v.1.13,2013-01-09 16:55:00,
2013-01-09 10:00:00,34.3,23.7,30.33,West,280,1.0,1.0,65,0.00,,,0.00,Wunderground v.1.13,2013-01-09 17:00:00,
2013-01-09 10:05:00,35.2,24.2,30.33,SW,219,1.0,1.0,64,0.00,,,0.00,Wunderground v.1.13,2013-01-09 17:05:00,
2013-01-09 10:10:00,35.8,24.8,30.33,West,263,0.0,14.0,64,0.00,,,0.00,Wunderground v.1.13,2013-01-09 17:10:00,
2013-01-09 10:15:00,36.0,25.0,30.33,West,260,1.0,14.0,64,0.00,,,0.00,Wunderground v.1.13,2013-01-09 17:15:00,
2013-01-09 10:25:00,37.9,26.4,30.33,WSW,244,1.0,1.0,63,0.00,,,0.00,Wunderground v.1.13,2013-01-09 17:25:00,
2013-01-09 10:35:00,40.2,27.0,30.31,WSW,238,4.0,14.0,59,0.00,,,0.00,Wunderground v.1.13,2013-01-09 17:35:00,
2013-01-09 10:40:00,41.2,27.5,30.31,WSW,246,6.0,6.0,58,0.00,,,0.00,Wunderground v.1.13,2013-01-09 17:40:00,
2013-01-09 10:50:00,42.2,27.6,30.30,SSW,213,7.0,7.0,56,0.00,,,0.00,Wunderground v.1.13,2013-01-09 17:50:00,
2013-01-09 10:55:00,42.5,27.5,30.30,SSW,205,6.0,14.0,55,0.00,,,0.00,Wunderground v.1.13,2013-01-09 17:55:00,
2013-01-09 11:05:00,42.8,27.3,30.28,SW,234,9.0,14.0,54,0.00,,,0.00,Wunderground v.1.13,2013-01-09 18:05:00,
2013-01-09 11:10:00,43.1,27.6,30.28,SSW,201,9.0,14.0,54,0.00,,,0.00,Wunderground v.1.13,2013-01-09 18:10:00,
2013-01-09 11:15:00,43.5,27.9,30.28,SW,227,8.0,8.0,54,0.00,,,0.00,Wunderground v.1.13,2013-01-09 18:15:00,
2013-01-09 11:20:00,43.6,28.0,30.28,SW,232,7.0,14.0,54,0.00,,,0.00,Wunderground v.1.13,2013-01-09 18:20:00,
2013-01-09 11:25:00,43.9,28.3,30.28,WSW,238,8.0,14.0,54,0.00,,,0.00,Wunderground v.1.13,2013-01-09 18:25:00,
2013-01-09 11:35:00,44.5,28.9,30.26,SW,225,7.0,7.0,54,0.00,,,0.00,Wunderground v.1.13,2013-01-09 18:35:00,
2013-01-09 11:40:00,44.9,28.8,30.26,WSW,240,5.0,5.0,53,0.00,,,0.00,Wunderground v.1.13,2013-01-09 18:40:00,
2013-01-09 11:45:00,45.4,28.8,30.25,SSW,213,5.0,5.0,52,0.00,,,0.00,Wunderground v.1.13,2013-01-09 18:45:00,
2013-01-09 11:50:00,45.7,28.6,30.25,SW,219,5.0,14.0,51,0.00,,,0.00,Wunderground v.1.13,2013-01-09 18:50:00,
2013-01-09 11:55:00,46.1,29.0,30.25,SW,234,5.0,14.0,51,0.00,,,0.00,Wunderground v.1.13,2013-01-09 18:55:00,
2013-01-09 12:00:00,46.2,28.6,30.25,SW,214,6.0,15.0,50,0.00,,,0.00,Wunderground v.1.13,2013-01-09 19:00:00,
2013-01-09 12:10:00,46.4,28.8,30.24,WSW,245,8.0,14.0,50,0.00,,,0.00,Wunderground v.1.13,2013-01-09 19:10:00,
2013-01-09 12:15:00,47.0,29.3,30.22,WSW,239,5.0,5.0,50,0.00,,,0.00,Wunderground v.1.13,2013-01-09 19:15:00,
2013-01-09 12:20:00,46.8,29.1,30.22,SW,223,5.0,14.0,50,0.00,,,0.00,Wunderground v.1.13,2013-01-09 19:20:00,
2013-01-09 12:30:00,47.1,29.4,30.22,WSW,250,7.0,14.0,50,0.00,,,0.00,Wunderground v.1.13,2013-01-09 19:30:00,
2013-01-09 12:40:00,47.4,28.7,30.21,SW,221,6.0,6.0,48,0.00,,,0.00,Wunderground v.1.13,2013-01-09 19:40:00,
2013-01-09 12:45:00,47.6,28.9,30.21,SSW,199,8.0,8.0,48,0.00,,,0.00,Wunderground v.1.13,2013-01-09 19:45:00,
2013-01-09 12:50:00,47.9,29.1,30.20,SSW,211,6.0,6.0,48,0.00,,,0.00,Wunderground v.1.13,2013-01-09 19:50:00,
2013-01-09 12:55:00,48.0,29.2,30.20,WSW,251,6.0,14.0,48,0.00,,,0.00,Wunderground v.1.13,2013-01-09 19:55:00,
2013-01-09 13:00:00,48.2,29.4,30.19,WSW,244,6.0,14.0,48,0.00,,,0.00,Wunderground v.1.13,2013-01-09 20:00:00,
2013-01-09 13:05:00,48.6,29.8,30.19,SW,236,5.0,5.0,48,0.00,,,0.00,Wunderground v.1.13,2013-01-09 20:05:00,
2013-01-09 13:10:00,48.8,30.0,30.19,SSW,194,5.0,5.0,48,0.00,,,0.00,Wunderground v.1.13,2013-01-09 20:10:00,
2013-01-09 13:20:00,48.8,29.4,30.19,SSW,204,7.0,14.0,47,0.00,,,0.00,Wunderground v.1.13,2013-01-09 20:20:00,
2013-01-09 13:25:00,48.9,29.5,30.19,SSW,203,8.0,8.0,47,0.00,,,0.00,Wunderground v.1.13,2013-01-09 20:25:00,
2013-01-09 13:30:00,49.6,30.2,30.19,SSW,196,3.0,14.0,47,0.00,,,0.00,Wunderground v.1.13,2013-01-09 20:30:00,
2013-01-09 13:40:00,49.5,30.1,30.19,SW,218,6.0,14.0,47,0.00,,,0.00,Wunderground v.1.13,2013-01-09 20:40:00,
2013-01-09 13:45:00,49.8,29.8,30.19,SSW,196,5.0,14.0,46,0.00,,,0.00,Wunderground v.1.13,2013-01-09 20:45:00,
2013-01-09 13:50:00,49.8,29.8,30.18,WSW,256,5.0,14.0,46,0.00,,,0.00,Wunderground v.1.13,2013-01-09 20:50:00,
2013-01-09 13:55:00,49.9,29.9,30.18,SSW,211,5.0,5.0,46,0.00,,,0.00,Wunderground v.1.13,2013-01-09 20:55:00,
2013-01-09 14:00:00,49.9,30.5,30.19,South,190,5.0,5.0,47,0.00,,,0.00,Wunderground v.1.13,2013-01-09 21:00:00,
2013-01-09 14:05:00,49.5,30.1,30.19,SSW,205,5.0,14.0,47,0.00,,,0.00,Wunderground v.1.13,2013-01-09 21:05:00,
2013-01-09 14:10:00,49.2,30.3,30.19,SSW,209,4.0,14.0,48,0.00,,,0.00,Wunderground v.1.13,2013-01-09 21:10:00,
2013-01-09 14:15:00,48.8,30.5,30.19,SW,217,5.0,14.0,49,0.00,,,0.00,Wunderground v.1.13,2013-01-09 21:15:00,
2013-01-09 14:20:00,48.6,30.3,30.19,SSW,205,4.0,4.0,49,0.00,,,0.00,Wunderground v.1.13,2013-01-09 21:20:00,
2013-01-09 14:25:00,48.5,29.7,30.19,SW,220,4.0,14.0,48,0.00,,,0.00,Wunderground v.1.13,2013-01-09 21:25:00,
2013-01-09 14:30:00,48.5,29.2,30.18,SW,217,6.0,6.0,47,0.00,,,0.00,Wunderground v.1.13,2013-01-09 21:30:00,
2013-01-09 14:35:00,48.6,29.3,30.18,SW,228,5.0,14.0,47,0.00,,,0.00,Wunderground v.1.13,2013-01-09 21:35:00,
2013-01-09 14:40:00,48.6,29.3,30.18,SW,232,4.0,4.0,47,0.00,,,0.00,Wunderground v.1.13,2013-01-09 21:40:00,
2013-01-09 14:45:00,48.8,29.4,30.17,SSW,207,3.0,3.0,47,0.00,,,0.00,Wunderground v.1.13,2013-01-09 21:45:00,
2013-01-09 14:55:00,49.1,30.2,30.17,WSW,240,1.0,1.0,48,0.00,,,0.00,Wunderground v.1.13,2013-01-09 21:55:00,
2013-01-09 15:00:00,49.2,30.3,30.17,WSW,240,0.0,14.0,48,0.00,,,0.00,Wunderground v.1.13,2013-01-09 22:00:00,
2013-01-09 15:05:00,49.4,30.0,30.17,WSW,240,0.0,14.0,47,0.00,,,0.00,Wunderground v.1.13,2013-01-09 22:05:00,
2013-01-09 15:10:00,49.2,30.3,30.17,SSW,207,0.0,14.0,48,0.00,,,0.00,Wunderground v.1.13,2013-01-09 22:10:00,
2013-01-09 15:15:00,49.1,29.7,30.16,SSW,207,0.0,14.0,47,0.00,,,0.00,Wunderground v.1.13,2013-01-09 22:15:00,
2013-01-09 15:20:00,48.8,30.0,30.16,SSW,199,0.0,14.0,48,0.00,,,0.00,Wunderground v.1.13,2013-01-09 22:20:00,
2013-01-09 15:25:00,48.5,30.2,30.16,SSE,167,0.0,14.0,49,0.00,,,0.00,Wunderground v.1.13,2013-01-09 22:25:00,
2013-01-09 15:30:00,48.0,30.2,30.16,SSE,157,1.0,14.0,50,0.00,,,0.00,Wunderground v.1.13,2013-01-09 22:30:00,
2013-01-09 15:35:00,47.6,30.8,30.17,South,171,1.0,1.0,52,0.00,,,0.00,Wunderground v.1.13,2013-01-09 22:35:00,
2013-01-09 15:40:00,47.3,31.0,30.17,South,171,0.0,14.0,53,0.00,,,0.00,Wunderground v.1.13,2013-01-09 22:40:00,
2013-01-09 15:45:00,46.7,30.9,30.17,South,170,0.0,14.0,54,0.00,,,0.00,Wunderground v.1.13,2013-01-09 22:45:00,
2013-01-09 15:50:00,46.1,30.8,30.17,South,169,0.0,14.0,55,0.00,,,0.00,Wunderground v.1.13,2013-01-09 22:50:00,
2013-01-09 15:55:00,45.7,30.9,30.17,South,169,0.0,14.0,56,0.00,,,0.00,Wunderground v.1.13,2013-01-09 22:55:00,
2013-01-09 16:00:00,45.4,31.0,30.17,South,169,0.0,14.0,57,0.00,,,0.00,Wunderground v.1.13,2013-01-09 23:00:00,
2013-01-09 16:05:00,45.1,30.8,30.16,South,169,0.0,14.0,57,0.00,,,0.00,Wunderground v.1.13,2013-01-09 23:05:00,
2013-01-09 16:10:00,44.8,30.9,30.16,South,169,0.0,14.0,58,0.00,,,0.00,Wunderground v.1.13,2013-01-09 23:10:00,
2013-01-09 16:15:00,44.1,30.7,30.16,South,169,0.0,14.0,59,0.00,,,0.00,Wunderground v.1.13,2013-01-09 23:15:00,
2013-01-09 16:20:00,43.5,30.5,30.15,South,171,0.0,14.0,60,0.00,,,0.00,Wunderground v.1.13,2013-01-09 23:20:00,
2013-01-09 16:30:00,43.1,30.6,30.15,South,169,0.0,14.0,61,0.00,,,0.00,Wunderground v.1.13,2013-01-09 23:30:00,
2013-01-09 16:35:00,42.6,30.5,30.14,South,169,0.0,14.0,62,0.00,,,0.00,Wunderground v.1.13,2013-01-09 23:35:00,
2013-01-09 16:40:00,42.3,30.2,30.14,South,169,0.0,14.0,62,0.00,,,0.00,Wunderground v.1.13,2013-01-09 23:40:00,
2013-01-09 16:45:00,42.5,30.4,30.14,SSE,155,0.0,14.0,62,0.00,,,0.00,Wunderground v.1.13,2013-01-09 23:45:00,
2013-01-09 16:50:00,43.6,30.6,30.14,South,179,4.0,14.0,60,0.00,,,0.00,Wunderground v.1.13,2013-01-09 23:50:00,
2013-01-09 16:55:00,43.5,30.5,30.14,SSE,149,6.0,14.0,60,0.00,,,0.00,Wunderground v.1.13,2013-01-09 23:55:00,
2013-01-09 17:00:00,43.1,30.6,30.14,South,184,4.0,14.0,61,0.00,,,0.00,Wunderground v.1.13,2013-01-10 00:00:00,
2013-01-09 17:10:00,43.2,30.2,30.14,South,178,5.0,5.0,60,0.00,,,0.00,Wunderground v.1.13,2013-01-10 00:10:00,
2013-01-09 17:15:00,42.6,30.1,30.14,South,183,4.0,14.0,61,0.00,,,0.00,Wunderground v.1.13,2013-01-10 00:15:00,
2013-01-09 17:20:00,42.6,30.1,30.13,SSW,194,3.0,3.0,61,0.00,,,0.00,Wunderground v.1.13,2013-01-10 00:20:00,
2013-01-09 17:30:00,42.1,30.0,30.12,South,187,2.0,2.0,62,0.00,,,0.00,Wunderground v.1.13,2013-01-10 00:30:00,
2013-01-09 17:35:00,42.6,29.7,30.12,WSW,242,3.0,14.0,60,0.00,,,0.00,Wunderground v.1.13,2013-01-10 00:35:00,
2013-01-09 17:40:00,42.6,29.3,30.12,South,177,4.0,14.0,59,0.00,,,0.00,Wunderground v.1.13,2013-01-10 00:40:00,
2013-01-09 17:45:00,42.8,29.5,30.12,South,190,5.0,5.0,59,0.00,,,0.00,Wunderground v.1.13,2013-01-10 00:45:00,
2013-01-09 17:50:00,42.2,29.3,30.12,SW,218,4.0,14.0,60,0.00,,,0.00,Wunderground v.1.13,2013-01-10 00:50:00,
2013-01-09 18:00:00,42.3,28.6,30.13,SW,219,3.0,14.0,58,0.00,,,0.00,Wunderground v.1.13,2013-01-10 01:00:00,
2013-01-09 18:05:00,42.8,29.0,30.13,SSW,201,4.0,4.0,58,0.00,,,0.00,Wunderground v.1.13,2013-01-10 01:05:00,
2013-01-09 18:10:00,42.2,28.9,30.13,SSW,204,2.0,2.0,59,0.00,,,0.00,Wunderground v.1.13,2013-01-10 01:10:00,
2013-01-09 18:15:00,41.5,28.6,30.13,SSW,204,0.0,14.0,60,0.00,,,0.00,Wunderground v.1.13,2013-01-10 01:15:00,
2013-01-09 18:20:00,40.5,28.1,30.13,South,176,0.0,14.0,61,0.00,,,0.00,Wunderground v.1.13,2013-01-10 01:20:00,
2013-01-09 18:25:00,40.2,28.6,30.13,South,175,1.0,1.0,63,0.00,,,0.00,Wunderground v.1.13,2013-01-10 01:25:00,
2013-01-09 18:30:00,40.1,28.5,30.13,SSW,198,1.0,1.0,63,0.00,,,0.00,Wunderground v.1.13,2013-01-10 01:30:00,
2013-01-09 18:35:00,39.5,28.3,30.12,SSE,168,1.0,1.0,64,0.00,,,0.00,Wunderground v.1.13,2013-01-10 01:35:00,
2013-01-09 18:40:00,39.1,28.3,30.12,SSE,168,0.0,14.0,65,0.00,,,0.00,Wunderground v.1.13,2013-01-10 01:40:00,
2013-01-09 18:45:00,38.8,28.4,30.12,SSE,166,1.0,1.0,66,0.00,,,0.00,Wunderground v.1.13,2013-01-10 01:45:00,
2013-01-09 18:55:00,38.0,28.0,30.13,ENE,57,0.0,14.0,67,0.00,,,0.00,Wunderground v.1.13,2013-01-10 01:55:00,
2013-01-09 19:00:00,37.8,27.8,30.13,ENE,57,0.0,14.0,67,0.00,,,0.00,Wunderground v.1.13,2013-01-10 02:00:00,
2013-01-09 19:10:00,37.3,27.7,30.12,ENE,57,0.0,14.0,68,0.00,,,0.00,Wunderground v.1.13,2013-01-10 02:10:00,
2013-01-09 19:15:00,37.0,27.8,30.12,ENE,57,0.0,14.0,69,0.00,,,0.00,Wunderground v.1.13,2013-01-10 02:15:00,
2013-01-09 19:20:00,36.6,27.7,30.12,ENE,57,0.0,14.0,70,0.00,,,0.00,Wunderground v.1.13,2013-01-10 02:20:00,
2013-01-09 19:25:00,36.2,27.4,30.12,ENE,57,0.0,14.0,70,0.00,,,0.00,Wunderground v.1.13,2013-01-10 02:25:00,
2013-01-09 19:30:00,35.8,27.3,30.12,ENE,57,0.0,14.0,71,0.00,,,0.00,Wunderground v.1.13,2013-01-10 02:30:00,
2013-01-09 19:35:00,35.5,27.4,30.13,ENE,57,0.0,14.0,72,0.00,,,0.00,Wunderground v.1.13,2013-01-10 02:35:00,
2013-01-09 19:40:00,35.3,27.2,30.13,ENE,57,0.0,14.0,72,0.00,,,0.00,Wunderground v.1.13,2013-01-10 02:40:00,
2013-01-09 19:50:00,36.0,27.5,30.13,NE,55,0.0,14.0,71,0.00,,,0.00,Wunderground v.1.13,2013-01-10 02:50:00,
2013-01-09 20:00:00,35.5,26.7,30.13,NE,55,0.0,14.0,70,0.00,,,0.00,Wunderground v.1.13,2013-01-10 03:00:00,
2013-01-09 20:05:00,35.2,26.7,30.13,NE,55,0.0,14.0,71,0.00,,,0.00,Wunderground v.1.13,2013-01-10 03:05:00,
2013-01-09 20:10:00,35.0,26.5,30.13,NE,56,0.0,14.0,71,0.00,,,0.00,Wunderground v.1.13,2013-01-10 03:10:00,
2013-01-09 20:15:00,35.2,26.7,30.13,NE,56,0.0,14.0,71,0.00,,,0.00,Wunderground v.1.13,2013-01-10 03:15:00,
2013-01-09 20:20:00,35.2,26.7,30.12,NE,56,0.0,14.0,71,0.00,,,0.00,Wunderground v.1.13,2013-01-10 03:20:00,
2013-01-09 20:30:00,35.3,26.5,30.12,NE,56,0.0,14.0,70,0.00,,,0.00,Wunderground v.1.13,2013-01-10 03:30:00,
2013-01-09 20:35:00,35.3,26.5,30.12,NE,56,0.0,14.0,70,0.00,,,0.00,Wunderground v.1.13,2013-01-10 03:35:00,
2013-01-09 20:40:00,34.9,26.1,30.12,NE,56,0.0,14.0,70,0.00,,,0.00,Wunderground v.1.13,2013-01-10 03:40:00,
2013-01-09 20:45:00,34.7,25.9,30.12,NE,56,0.0,14.0,70,0.00,,,0.00,Wunderground v.1.13,2013-01-10 03:45:00,
2013-01-09 20:50:00,34.7,26.3,30.12,East,88,0.0,14.0,71,0.00,,,0.00,Wunderground v.1.13,2013-01-10 03:50:00,
2013-01-09 20:55:00,35.0,26.5,30.12,East,92,0.0,14.0,71,0.00,,,0.00,Wunderground v.1.13,2013-01-10 03:55:00,
2013-01-09 21:00:00,35.0,26.2,30.12,East,92,0.0,14.0,70,0.00,,,0.00,Wunderground v.1.13,2013-01-10 04:00:00,
2013-01-09 21:05:00,35.2,26.7,30.12,East,92,0.0,14.0,71,0.00,,,0.00,Wunderground v.1.13,2013-01-10 04:05:00,
2013-01-09 21:10:00,35.0,26.2,30.12,East,92,0.0,14.0,70,0.00,,,0.00,Wunderground v.1.13,2013-01-10 04:10:00,
2013-01-09 21:15:00,34.9,26.1,30.12,East,92,0.0,14.0,70,0.00,,,0.00,Wunderground v.1.13,2013-01-10 04:15:00,
2013-01-09 21:20:00,34.6,25.8,30.11,East,92,0.0,14.0,70,0.00,,,0.00,Wunderground v.1.13,2013-01-10 04:20:00,
2013-01-09 21:25:00,34.4,26.0,30.11,East,92,0.0,14.0,71,0.00,,,0.00,Wunderground v.1.13,2013-01-10 04:25:00,
2013-01-09 21:30:00,34.0,25.6,30.11,East,92,0.0,14.0,71,0.00,,,0.00,Wunderground v.1.13,2013-01-10 04:30:00,
2013-01-09 21:35:00,33.8,25.7,30.11,East,92,0.0,14.0,72,0.00,,,0.00,Wunderground v.1.13,2013-01-10 04:35:00,
2013-01-09 21:40:00,33.7,25.6,30.11,East,92,0.0,14.0,72,0.00,,,0.00,Wunderground v.1.13,2013-01-10 04:40:00,
2013-01-09 21:45:00,33.5,25.4,30.11,East,92,0.0,14.0,72,0.00,,,0.00,Wunderground v.1.13,2013-01-10 04:45:00,
2013-01-09 21:50:00,33.5,25.8,30.12,East,92,0.0,14.0,73,0.00,,,0.00,Wunderground v.1.13,2013-01-10 04:50:00,
2013-01-09 21:55:00,33.5,25.4,30.12,East,92,0.0,14.0,72,0.00,,,0.00,Wunderground v.1.13,2013-01-10 04:55:00,
2013-01-09 22:05:00,33.7,25.6,30.12,East,92,0.0,14.0,72,0.00,,,0.00,Wunderground v.1.13,2013-01-10 05:05:00,
2013-01-09 22:10:00,33.7,25.6,30.12,East,92,0.0,14.0,72,0.00,,,0.00,Wunderground v.1.13,2013-01-10 05:10:00,
2013-01-09 22:15:00,33.5,25.4,30.12,East,92,0.0,14.0,72,0.00,,,0.00,Wunderground v.1.13,2013-01-10 05:15:00,
2013-01-09 22:20:00,33.4,25.3,30.13,East,92,0.0,14.0,72,0.00,,,0.00,Wunderground v.1.13,2013-01-10 05:20:00,
2013-01-09 22:30:00,33.5,25.4,30.13,SE,131,0.0,14.0,72,0.00,,,0.00,Wunderground v.1.13,2013-01-10 05:30:00,
2013-01-09 22:40:00,34.3,25.5,30.13,South,176,1.0,1.0,70,0.00,,,0.00,Wunderground v.1.13,2013-01-10 05:40:00,
2013-01-09 22:45:00,34.1,25.3,30.13,South,176,1.0,1.0,70,0.00,,,0.00,Wunderground v.1.13,2013-01-10 05:45:00,
2013-01-09 22:55:00,34.3,25.2,30.13,SSE,153,2.0,14.0,69,0.00,,,0.00,Wunderground v.1.13,2013-01-10 05:55:00,
2013-01-09 23:00:00,34.1,24.6,30.13,SSE,153,2.0,2.0,68,0.00,,,0.00,Wunderground v.1.13,2013-01-10 06:00:00,
2013-01-09 23:05:00,33.8,24.7,30.13,SSE,153,1.0,1.0,69,0.00,,,0.00,Wunderground v.1.13,2013-01-10 06:05:00,
2013-01-09 23:10:00,33.4,24.7,30.13,SSE,153,0.0,14.0,70,0.00,,,0.00,Wunderground v.1.13,2013-01-10 06:10:00,
2013-01-09 23:15:00,33.2,24.5,30.12,SSE,153,0.0,14.0,70,0.00,,,0.00,Wunderground v.1.13,2013-01-10 06:15:00,
2013-01-09 23:20:00,32.9,24.2,30.12,SSE,153,0.0,14.0,70,0.00,,,0.00,Wunderground v.1.13,2013-01-10 06:20:00,
2013-01-09 23:25:00,32.8,24.1,30.12,SSE,153,0.0,14.0,70,0.00,,,0.00,Wunderground v.1.13,2013-01-10 06:25:00,
2013-01-09 23:30:00,32.8,24.1,30.12,SSE,153,0.0,14.0,70,0.00,,,0.00,Wunderground v.1.13,2013-01-10 06:30:00,
2013-01-09 23:35:00,32.4,23.7,30.12,SSE,153,0.0,14.0,70,0.00,,,0.00,Wunderground v.1.13,2013-01-10 06:35:00,
2013-01-09 23:40:00,32.2,23.5,30.12,SSE,153,0.0,14.0,70,0.00,,,0.00,Wunderground v.1.13,2013-01-10 06:40:00,
2013-01-09 23:45:00,32.2,23.8,30.12,SSE,153,0.0,14.0,71,0.00,,,0.00,Wunderground v.1.13,2013-01-10 06:45:00,
2013-01-09 23:50:00,32.1,23.8,30.11,SSE,153,0.0,14.0,71,0.00,,,0.00,Wunderground v.1.13,2013-01-10 06:50:00,
2013-01-09 23:55:00,31.8,23.5,30.11,SSE,153,0.0,14.0,71,0.00,,,0.00,Wunderground v.1.13,2013-01-10 06:55:00,